EW4529 Weather Reports


time (UTC)temp
C
wind
direction
speed
KPH
gust
KPH
rain 1hr
cm
rain 24hr
cm
rain mn
cm
humidity
%
barometer
mb
20260506202340 20 172 1.6 12.9 0.00 0.30 0.30 78 1007.3
20260506201343 20 217 0.0 9.7 0.00 0.30 0.30 81 1007.3
20260506200320 19 64 3.2 9.7 0.00 0.30 0.30 81 1007.4
20260506195325 19 140 0.0 6.4 0.00 0.30 0.30 82 1007.6
20260506194324 18 258 0.0 6.4 0.00 0.30 0.30 83 1007.7
20260506193319 18 84 1.6 12.9 0.00 0.30 0.30 84 1007.8
20260506192317 18 212 0.0 6.4 0.00 0.30 0.30 85 1008.0
20260506191319 18 320 1.6 6.4 0.00 0.30 0.30 85 1008.0
20260506190315 18 275 3.2 11.3 0.00 0.30 0.30 85 1008.1
20260506185316 17 311 1.6 6.4 0.00 0.30 0.30 86 1008.0
20260506184316 17 127 1.6 8.0 0.00 0.30 0.30 87 1008.1
20260506183338 17 290 0.0 9.7 0.00 0.30 0.30 87 1008.3
20260506182314 17 249 1.6 17.7 0.00 0.30 0.30 88 1008.3
20260506181317 17 132 1.6 11.3 0.00 0.30 0.30 88 1008.3
20260506180337 17 131 1.6 17.7 0.00 0.30 0.30 88 1008.4
20260506175319 17 274 4.8 20.9 0.00 0.30 0.30 88 1008.4
20260506174320 17 32 1.6 12.9 0.03 0.30 0.30 89 1008.4
20260506173315 17 340 1.6 17.7 0.03 0.30 0.30 89 1008.5
20260506172321 17 346 1.6 9.7 0.05 0.30 0.30 88 1008.5
20260506171321 17 285 1.6 14.5 0.08 0.30 0.30 88 1008.7
20260506170316 17 157 1.6 12.9 0.13 0.30 0.30 89 1008.7
20260506165320 17 135 1.6 11.3 0.15 0.30 0.30 88 1008.7
20260506164313 18 102 1.6 12.9 0.15 0.28 0.28 90 1008.6
20260506163315 17 222 1.6 6.4 0.18 0.28 0.28 91 1008.8
20260506162312 17 112 1.6 6.4 0.20 0.25 0.25 90 1009.1
20260506161330 17 127 3.2 12.9 0.20 0.23 0.23 89 1009.5
20260506160322 17 290 0.0 6.4 0.18 0.18 0.18 88 1009.9
20260506155340 17 336 0.0 1.6 0.15 0.15 0.15 88 1010.0
20260506154321 17 139 0.0 6.4 0.13 0.13 0.13 86 1010.1
20260506153327 17 108 1.6 8.0 0.10 0.10 0.10 85 1010.1
20260506152322 18 142 0.0 9.7 0.05 0.05 0.05 83 1009.9
20260506151322 18 270 3.2 11.3 0.03 0.03 0.03 79 1009.9
20260506150319 18 174 0.0 6.4 0.00 0.00 0.00 77 1009.9
20260506145327 19 316 1.6 11.3 0.00 0.00 0.00 77 1009.7
20260506144318 19 167 0.0 8.0 0.00 0.00 0.00 77 1010.0
20260506143314 19 269 3.2 11.3 0.00 0.00 0.00 72 1010.1
20260506142333 20 98 1.6 8.0 0.00 0.00 0.00 70 1010.0
20260506141309 20 222 1.6 9.7 0.00 0.00 0.00 68 1009.9
20260506140320 20 133 3.2 11.3 0.00 0.00 0.00 66 1009.9
20260506135344 20 89 3.2 16.1 0.00 0.00 0.00 68 1009.8
20260506134316 20 220 3.2 12.9 0.00 0.00 0.00 69 1009.7
20260506133326 19 134 1.6 12.9 0.00 0.00 0.00 71 1009.8
20260506132323 19 108 1.6 9.7 0.00 0.00 0.00 71 1009.8
20260506131319 19 323 1.6 9.7 0.00 0.00 0.00 72 1009.8
20260506130339 19 357 1.6 14.5 0.00 0.00 0.00 72 1010.0
20260506125334 19 340 4.8 14.5 0.00 0.00 0.00 72 1010.2
20260506124311 19 133 1.6 14.5 0.00 0.00 0.00 72 1009.9
20260506123322 19 35 1.6 16.1 0.00 0.00 0.00 73 1009.9
20260506122319 19 135 3.2 17.7 0.00 0.00 0.00 74 1009.8
20260506121315 18 328 1.6 12.9 0.00 0.00 0.00 75 1009.8
20260506120333 18 5 3.2 12.9 0.00 0.00 0.00 75 1009.8
20260506115328 18 144 3.2 12.9 0.00 0.00 0.00 77 1009.8
20260506114347 18 323 1.6 11.3 0.00 0.00 0.00 78 1009.7
20260506113316 17 225 1.6 19.3 0.00 0.00 0.00 78 1009.8
20260506112313 17 193 1.6 11.3 0.00 0.00 0.00 79 1009.8
20260506111310 17 328 3.2 9.7 0.00 0.00 0.00 79 1009.8
20260506110311 17 130 3.2 14.5 0.00 0.00 0.00 80 1009.8
20260506105344 17 313 1.6 12.9 0.00 0.00 0.00 80 1009.7
20260506104323 17 27 1.6 6.4 0.00 0.00 0.00 81 1009.7
20260506103318 17 318 1.6 14.5 0.00 0.00 0.00 81 1009.6
20260506102315 17 122 0.0 11.3 0.00 0.00 0.00 81 1009.7
20260506101315 17 352 1.6 12.9 0.00 0.00 0.00 82 1009.6
20260506100311 17 354 1.6 16.1 0.00 0.00 0.00 82 1009.7
20260506095310 17 143 0.0 9.7 0.00 0.00 0.00 81 1009.8
20260506094330 17 77 1.6 8.0 0.00 0.00 0.00 81 1009.7
20260506093313 17 148 4.8 9.7 0.00 0.00 0.00 81 1009.6
20260506092332 17 131 0.0 8.0 0.00 0.00 0.00 80 1009.6
20260506091347 17 236 3.2 11.3 0.00 0.00 0.00 80 1009.6
20260506090322 17 324 0.0 8.0 0.00 0.00 0.00 79 1009.7
20260506085324 18 9 1.6 19.3 0.00 0.00 0.00 79 1009.8
20260506084326 18 150 0.0 6.4 0.00 0.00 0.00 80 1009.7
20260506083346 17 106 0.0 8.0 0.00 0.00 0.00 80 1009.8
20260506082322 17 114 1.6 12.9 0.00 0.00 0.00 80 1009.9
20260506081316 17 13 0.0 8.0 0.00 0.00 0.00 80 1010.0
20260506080320 17 127 1.6 9.7 0.00 0.00 0.00 80 1010.0
20260506073317 18 118 3.2 8.0 0.00 0.00 0.00 79 1009.9
20260506072318 18 158 1.6 8.0 0.00 0.00 0.00 79 1010.0
20260506071319 18 110 1.6 9.7 0.00 0.00 0.00 78 1009.9
20260506070312 18 284 1.6 12.9 0.00 0.00 0.00 78 1010.0
20260506062345 18 125 0.0 6.4 0.00 0.00 0.00 77 1010.3
20260506061351 18 41 0.0 3.2 0.00 0.00 0.00 76 1010.2
20260506060325 18 54 0.0 3.2 0.00 0.00 0.00 76 1010.3
20260506051332 19 105 0.0 8.0 0.00 0.00 0.00 72 1010.6
20260506050331 19 158 1.6 8.0 0.00 0.00 0.00 72 1010.7
20260506044325 19 139 0.0 9.7 0.00 0.00 0.00 71 1010.9
20260506043325 19 147 3.2 11.3 0.00 0.00 0.00 70 1010.8
20260506042325 19 157 1.6 8.0 0.00 0.00 0.00 69 1010.8
20260506041317 20 287 3.2 6.4 0.00 0.00 0.00 69 1010.9
20260506040318 20 136 0.0 9.7 0.00 0.00 0.00 68 1010.7
20260506035311 20 183 1.6 11.3 0.00 0.00 0.00 67 1010.8
20260506034340 20 317 1.6 8.0 0.00 0.00 0.00 67 1010.7
20260506033313 20 122 1.6 16.1 0.00 0.00 0.00 66 1010.6
20260506032317 20 311 1.6 8.0 0.00 0.00 0.00 65 1010.6
20260506031311 20 147 4.8 14.5 0.00 0.00 0.00 64 1010.7
20260506030311 20 125 1.6 11.3 0.00 0.00 0.00 63 1010.7
20260506025313 20 136 1.6 9.7 0.00 0.00 0.00 63 1010.8
20260506024333 20 1 1.6 9.7 0.00 0.00 0.00 63 1010.8
20260506023311 20 146 1.6 6.4 0.00 0.00 0.00 62 1010.8
20260506022319 20 136 3.2 14.5 0.00 0.00 0.00 62 1010.8
20260506021315 21 66 1.6 9.7 0.00 0.00 0.00 61 1010.8
20260506020340 21 143 0.0 4.8 0.00 0.00 0.00 60 1010.8
20260506015321 21 190 3.2 14.5 0.00 0.00 0.00 59 1010.7
20260506014325 21 192 1.6 8.0 0.00 0.00 0.00 57 1010.7
20260506013322 22 148 4.8 9.7 0.00 0.00 0.00 55 1010.5
20260506012325 22 103 3.2 14.5 0.00 0.00 0.00 53 1010.4
20260506011348 22 160 3.2 14.5 0.00 0.00 0.00 52 1010.3
20260506010324 22 129 0.0 9.7 0.00 0.00 0.00 51 1010.2
20260506005324 22 116 0.0 11.3 0.00 0.00 0.00 49 1010.0
20260506004309 23 141 0.0 8.0 0.00 0.00 0.00 46 1010.0
20260506003321 23 2 1.6 9.7 0.00 0.00 0.00 44 1009.9
20260506002352 23 348 0.0 11.3 0.00 0.00 0.00 44 1009.7
20260506001353 24 273 0.0 8.0 0.00 0.00 0.00 43 1009.6
20260506000309 24 183 3.2 11.3 0.00 0.00 0.00 43 1009.5
20260505235309 24 178 1.6 12.9 0.00 0.00 0.00 42 1009.4
20260505234326 25 129 3.2 12.9 0.00 0.00 0.00 42 1009.4
20260505233308 25 321 1.6 14.5 0.00 0.00 0.00 43 1009.4
20260505232330 25 321 1.6 9.7 0.00 0.00 0.00 43 1009.2
20260505231311 25 3 0.0 9.7 0.00 0.00 0.00 43 1009.1
20260505230308 25 301 1.6 11.3 0.00 0.00 0.00 42 1009.1
20260505225326 25 146 4.8 11.3 0.00 0.00 0.00 41 1009.1
20260505224325 25 316 1.6 17.7 0.00 0.00 0.00 41 1009.1
20260505223319 26 326 1.6 20.9 0.00 0.00 0.00 41 1009.1
20260505222320 26 152 3.2 20.9 0.00 0.00 0.00 39 1008.9
20260505221321 26 158 1.6 16.1 0.00 0.00 0.00 37 1009.1
20260505220324 26 267 6.4 24.1 0.00 0.00 0.00 36 1009.0
20260505215318 27 118 3.2 19.3 0.00 0.00 0.00 36 1009.0
20260505214323 27 289 6.4 22.5 0.00 0.00 0.00 34 1008.7
20260505213325 27 214 1.6 22.5 0.00 0.00 0.00 33 1008.8
20260505212328 27 326 4.8 20.9 0.00 0.00 0.00 32 1008.9
20260505211314 28 88 4.8 9.7 0.00 0.00 0.00 31 1008.8
20260505210339 28 14 3.2 16.1 0.00 0.00 0.00 31 1009.0
20260505205321 28 183 1.6 17.7 0.00 0.00 0.00 30 1008.7
20260505204313 28 181 3.2 14.5 0.00 0.00 0.00 29 1008.7
20260505203315 28 17 6.4 17.7 0.00 0.00 0.00 28 1008.7